Flag Weather past 2 weeks in Salem, Oregon, U.S.A.

Now
59 °F

Light rain. Cloudy.


Feels Like: 58 °F
Forecast: 55 / 64 °F
Wind: 8 mph from South

Location: McNary Field

Current Time: Oct 30, 2014 at 4:57:39 PM

Latest Report: Oct 30, 2014 at 3:56 PM


Visibility: 7 mi

Pressure: 29.81 "Hg

Humidity: 93%

Dew point: 57 °F

Location of SalemLocation

Historic Weather in Salem — Graph

°F

Salem temperature yesterday

Maximum temperature yesterday: 63 °F (at 1:56 PM)
Minimum temperature yesterday: 56 °F (at 5:56 AM)
Average temperature yesterday: 58 °F

Past Weeks' High & Low Weather Summary

 TemperatureHumidityPressure
High74 °F (Oct 18, 2:56 PM)97% (Oct 17, 5:56 AM)30.18 "Hg (Oct 17, 5:56 AM)
Low47 °F (Oct 25, 1:56 AM)35% (Oct 16, 2:56 PM)29.37 "Hg (Oct 25, 10:56 AM)
Average57 °F82%29.89 "Hg
* Reported Oct 15 3:56 PM — Oct 30 3:56 PM, Salem, Weather by CustomWeather, © 2014

Note: Actual official high and low records may vary slightly from our data, if they occured in-between our weather recording intervals... More about our weather records

Advertising

Salem weather history for previous 24 hours

 ConditionsComfort  
Time TempWeatherWind HumidityBarometerVisibility
3:56 PM
Oct 30
59 °FLight rain. Cloudy.8 mph93%29.81 "Hg7 mi
2:56 PM60 °FLight rain. Fog.8 mph90%29.80 "Hg5 mi
1:56 PM59 °FLight rain. Fog.7 mph93%29.81 "Hg6 mi
12:56 PM59 °FFog.6 mph90%29.83 "Hg4 mi
11:56 AM58 °FFog.No wind90%29.85 "Hg4 mi
10:56 AM57 °FFog.No wind93%29.84 "Hg2 mi
9:56 AM56 °FFog.6 mph97%29.85 "Hg2 mi
8:56 AM56 °FFog.No wind97%29.86 "Hg1 mi
7:56 AM56 °FFog.3 mph93%29.87 "Hg2 mi
6:56 AM56 °FLight rain. Fog.5 mph93%29.88 "Hg6 mi
5:56 AM56 °FFog.6 mph97%29.89 "Hg3 mi
5:03 AM56 °FLight rain. Fog.No wind97%29.90 "Hg1 mi
4:56 AM56 °FLight rain. Fog.No wind97%29.91 "Hg2 mi
3:56 AM56 °FLight rain. Fog.No wind97%29.92 "Hg1 mi
2:56 AM56 °FFog.6 mph97%29.93 "Hg2 mi
1:56 AM56 °FFog.3 mph97%29.95 "Hg2 mi
12:56 AM57 °FFog.No wind93%29.96 "Hg5 mi
11:56 PM
Oct 29
56 °FLight rain. Fog.No wind93%30.00 "Hg2 mi
10:56 PM57 °FFog.No wind93%30.01 "Hg5 mi
9:56 PM56 °FLight rain. Passing clouds.No wind97%30.02 "Hg7 mi
8:56 PM58 °FPassing clouds.No wind90%30.02 "Hg10 mi
7:56 PM58 °FPassing clouds.No wind90%30.03 "Hg10 mi
6:56 PM60 °FLight rain. Overcast.No wind86%30.04 "Hg10 mi
5:56 PM60 °FBroken clouds.5 mph86%30.04 "Hg10 mi
4:56 PM62 °FMostly cloudy.3 mph75%30.06 "Hg10 mi
Weather by CustomWeather, © 2014

See weather overviewHow to use our weather pages